Weather History for KPBI - November, 2014

Change the Weather History Date:

Sunday, November 23, 2014

  Actual Average Record
Temperature  
Mean Temperature 79 °F 72 °F  
Max Temperature 83 °F 79 °F 89 °F (1948)
Min Temperature 75 °F 64 °F 44 °F (1944)
Degree Days  
Heating Degree Days 0 1  
Month to date heating degree days 10 2  
Since 1 July heating degree days 10 3  
Cooling Degree Days 14 7  
Month to date cooling degree days 157 197  
Year to date cooling degree days 4093 3818  
Growing Degree Days 28 (Base 50)    
Moisture  
Dew Point 73 °F    
Average Humidity 83    
Maximum Humidity 91    
Minimum Humidity 74    
Precipitation  
Precipitation 0.02 in 0.13 in 2.55 in (1977)
Month to date precipitation 1.79 3.83  
Year to date precipitation 59.38 58.03  
Snow  
Snow 0.00 in - - ()
Month to date snowfall 0.0  
Since 1 July snowfall 0.0  
Since 1 September snowfall 0.0  
Snow Depth 0.00 in    
Sea Level Pressure  
Sea Level Pressure 29.98 in    
Wind  
Wind Speed 15 mph (SSE)    
Max Wind Speed 24 mph    
Max Gust Speed 31 mph    
Visibility 10 miles    
Events Rain    
T = Trace of Precipitation, MM = Missing Value Source: NWS Daily Summary

Daily Weather History Graph

Daily Weather History Graph

Search for Another Location

Airport or City:

Trip Planner

Search our weather history database for the weather conditions in past years. The results will help you decide how hot, cold, wet, or windy it might be!

Date:

Astronomy

Nov. 23, 2014 Rise Set
Actual Time 6:45 AM EST 5:27 PM EST
Civil Twilight 6:20 AM EST 5:52 PM EST
Nautical Twilight 5:52 AM EST 6:20 PM EST
Astronomical Twilight 5:24 AM EST 6:48 PM EST
Moon 7:41 AM EST (11/23) 6:48 PM EST (11/23)
Length of Visible Light 11h 31m
Length of Day
10h 41m
New Moon, 2% of the Moon is Illuminated
Nov 23
New Moon
Nov 29
First Quarter
Dec 6
Full
Dec 14
Last Quarter
Dec 21
New

Hourly Weather History & Observations

Time (EST) Temp. Heat Index Dew Point Humidity Pressure Visibility Wind Dir Wind Speed Gust Speed Precip Events Conditions
12:53 AM 77.0 °F - 73.0 °F 88% 30.05 in 10.0 mi SE 21.9 mph 27.6 mph 0.02 in Rain Light Rain
1:53 AM 78.1 °F - 72.0 °F 81% 30.04 in 10.0 mi SE 17.3 mph 27.6 mph 0.00 in   Mostly Cloudy
2:53 AM 78.1 °F - 72.0 °F 81% 30.03 in 10.0 mi SE 16.1 mph 25.3 mph N/A   Mostly Cloudy
3:53 AM 78.1 °F - 72.0 °F 81% 30.01 in 10.0 mi SE 17.3 mph - N/A   Mostly Cloudy
4:53 AM 78.1 °F - 72.0 °F 81% 30.01 in 10.0 mi SE 16.1 mph - N/A   Mostly Cloudy
5:53 AM 78.1 °F - 72.0 °F 81% 30.01 in 10.0 mi SE 16.1 mph - N/A   Scattered Clouds
6:53 AM 78.1 °F - 72.0 °F 81% 30.02 in 10.0 mi SE 15.0 mph - N/A   Mostly Cloudy
7:53 AM 79.0 °F - 73.0 °F 82% 30.03 in 10.0 mi SE 17.3 mph - N/A   Scattered Clouds
8:53 AM 81.0 °F 85.8 °F 73.0 °F 77% 30.03 in 10.0 mi SSE 17.3 mph 27.6 mph N/A   Scattered Clouds
9:53 AM 82.0 °F 87.4 °F 73.0 °F 74% 30.04 in 10.0 mi SE 16.1 mph 28.8 mph N/A   Mostly Cloudy
10:53 AM 82.0 °F 87.4 °F 73.0 °F 74% 30.03 in 10.0 mi SE 16.1 mph 25.3 mph N/A   Mostly Cloudy
11:53 AM 82.0 °F 87.4 °F 73.0 °F 74% 30.01 in 10.0 mi SSE 19.6 mph 26.5 mph N/A   Mostly Cloudy
12:26 PM 82.0 °F 87.9 °F 73.9 °F 76% 29.99 in 10.0 mi SSE 16.1 mph - 0.00 in   Overcast
12:53 PM 82.0 °F 87.4 °F 73.0 °F 74% 29.97 in 10.0 mi SSE 18.4 mph 24.2 mph 0.00 in   Overcast
1:16 PM 82.0 °F 87.9 °F 73.9 °F 76% 29.96 in 10.0 mi SSE 20.7 mph 28.8 mph 0.00 in Rain Light Rain
1:53 PM 82.9 °F 89.4 °F 73.9 °F 74% 29.94 in 10.0 mi SE 18.4 mph - 0.00 in   Mostly Cloudy
2:53 PM 82.0 °F 87.9 °F 73.9 °F 76% 29.91 in 10.0 mi SE 19.6 mph 24.2 mph N/A   Mostly Cloudy
3:32 PM 82.9 °F 89.4 °F 73.9 °F 74% 29.92 in 10.0 mi SSE 15.0 mph 21.9 mph N/A   Mostly Cloudy
3:53 PM 82.9 °F 89.4 °F 73.9 °F 74% 29.91 in 10.0 mi SSE 12.7 mph - N/A   Mostly Cloudy
4:53 PM 81.0 °F 86.2 °F 73.9 °F 79% 29.92 in 10.0 mi SSE 12.7 mph 21.9 mph N/A   Mostly Cloudy
5:40 PM 80.1 °F 84.5 °F 73.9 °F 81% 29.92 in 10.0 mi SSE 11.5 mph - N/A   Mostly Cloudy
5:53 PM 80.1 °F 84.5 °F 73.9 °F 81% 29.93 in 10.0 mi South 8.1 mph - N/A   Mostly Cloudy
6:53 PM 79.0 °F - 73.9 °F 84% 29.94 in 10.0 mi South 8.1 mph - N/A   Mostly Cloudy
7:53 PM 79.0 °F - 73.9 °F 84% 29.96 in 10.0 mi SSE 8.1 mph - N/A   Mostly Cloudy
8:53 PM 80.1 °F 85.1 °F 75.0 °F 85% 29.96 in 10.0 mi SSE 9.2 mph - N/A   Mostly Cloudy
9:53 PM 80.1 °F 84.5 °F 73.9 °F 81% 29.96 in 10.0 mi SSE 5.8 mph - N/A   Scattered Clouds
10:53 PM 79.0 °F - 75.0 °F 88% 29.96 in 10.0 mi SSE 8.1 mph - N/A   Mostly Cloudy
11:53 PM 80.1 °F 85.1 °F 75.0 °F 85% 29.95 in 10.0 mi SE 13.8 mph - 0.00 in Rain Light Rain